ONEWEB-0174

Last updated on April 25, 2021, 12:02 a.m. UTC

1 48072U 21025AG  21114.58336806 -.01066383  00000-0 -34330-1 0  9992
2 48072  87.4222 339.2858 0013148 128.5329 108.1713 15.34827602  1799
UTC
Height (km)
Latitude
Longitude
Inclination
Orbital Period
UTC large
Height (km)
Speed (km/s)
/
Latitude / Longitude
Inclination (degrees)
Orbital Period (minutes)
Azimuth
Elevation
Range (km)
Doppler Factor
iOS Compass Heading
iOS Angle

Next 30 passes for location: Hong Kong

Rise time Rise Azimuth (degrees) Set time Set Azimuth (degrees) Duration Max altitude (degrees)

No matching passes for this satellites